{"data":{"norad_id":61855,"intl_designator":"2024-202L","name":"STARLINK-32391","alt_names":[],"object_type":"PAYLOAD","status":"ACTIVE","operator":null,"country":"US","launch_date":"2024-11-07","launch_site_code":"AFETR","launch_vehicle":null,"mission":null,"orbit_class":"UNKNOWN","rcs_meters":null,"size_class":null,"mass_kg":null,"dimensions":null,"purposes":["comms"],"wikipedia_slug":null,"has_3d_model":false,"image_url":null,"decayed_at":null,"tle_current":{"epoch":"2026-09-21T13:09:23.948640Z","epoch_age_seconds":98003,"freshness":"FRESH","line1":"1 61855U 24202L   26264.54819385  .00001740  00000+0  72752-4 0  9996","line2":"2 61855  43.0002 211.7099 0001812 261.3545  98.7101 15.27583494105283","mean_motion":15.27583494,"eccentricity":0.0001812,"inclination_deg":43.0002,"raan_deg":211.7099,"arg_perigee_deg":261.3545,"mean_anomaly_deg":98.7101,"bstar":7.2752e-5,"rev_number":10528,"period_min":94.266533099892,"perigee_km":481.7953887418,"apogee_km":484.28187879147,"semimajor_km":6861.1756337666,"source":"CELESTRAK","updated_at":"2026-09-22T09:00:49.441720Z"}}}